NSIGHT (42726 NORAD) Tracking and Keplerian Element Data

This shows tracking and keplerian element data for the satellite.

Feedback or suggestion? Click here.




ElementValue
Catalog42726
NameNSIGHT
Epoch Orbit16713
Epoch Day116.07643009
Epoch Year2020
RAAN128.9553
Inclination51.6113
Eccentricity0.0003404
Argument of Perigee226.2479
Mean Anonmoly133.827
Mean Motion16.49117643
Decay Rate0.13690248
L11 42726U 98067MF 20116.07643009 .13690248 12613-4 18337-3 0 9995
L22 42726 51.6113 128.9553 0003404 226.2479 133.8270 16.49117643167130



Live tracking and technical data element details for NSIGHT (NORAD 42726). NSIGHT can be tracked NOW for your location showing map with azimuth and elevation plus other details from your city location.







IsCatalogInMostPopularTable: catalog: 42726, numindb: 733
Update: records affected: 1



GetName: 42726 NSIGHT

Hit Count: updated at: Wed, 18 Jun 2025 06:22:21 GMT